Regional Weather Roundup
Issued by NWS Goodland, KS

Home | Current Version | Previous Version | Text Only | Print | Product List | Glossary Off
Versions: 1 2 3 4 5 6 7 8 9 10 11 12 13 14 15 16 17 18 19 20 21 22 23 24 25 26 27 28 29 30 31 32 33 34 35 36 37 38 39 40 41 42 43 44 45 46 47 48 49 50

000
ASUS43 KGLD 191959
RWRGLD

GOODLAND FORECAST AREA HOURLY WEATHER ROUNDUP
NATIONAL WEATHER SERVICE GOODLAND KS
100 PM MST SUN FEB 19 2017

...OFFICIAL OBSERVATIONS...

CITY           SKY/WX    TMP DP  RH WIND       PRES   REMARKS
GOODLAND KS    MOSUNNY   67  42  40 S30G38    29.67F
HILL CITY KS   SUNNY     74  45  35 S15G22    29.72F
IMPERIAL NEB   CLOUDY    59  37  44 SE10      29.66F
MCCOOK NEB     PTSUNNY   73  42  32 S23G32    29.68F
AKRON CO       CLOUDY    67  26  21 S17G26    29.62F
BURLINGTON CO  CLOUDY    62  39  42 S29G36    29.69R
LIMON CO       CLOUDY    59  30  33 SE20      29.65F
$$

...UNOFFICIAL OBSERVATIONS...

CITY           SKY/WX    TMP DP  RH WIND       PRES   REMARKS
LENORA KS        N/A     70  32  24 SE12        N/A
NORTON KS      SUNNY     68  39  34 SE17G23   29.72F
SHARON SPRINGS   N/A     65  47  52 S26G37      N/A
TRENTON NEB      N/A     67  32  27 SW10        N/A
KIT CARSON CO    N/A     58  39  49 MISG        N/A
YUMA CO        FAIR      66  30  26 S18       29.62F
$$



USA.gov is the U.S. government's official web portal to all federal, state and local government web resources and services.